Find Starlink 3812

NORAD ID: 52346 Int'l Des: 2022-045 Owner: SPXS Country: US Constellation: starlink operational
LEOCIRCULAR

現在のビュー

3D地球を読み込み中...

About Starlink 3812

Starlink 3812 (NORAD 52346) is a starlink constellation satellite (v1.5) launched Apr 29, 2022 by SPXS of US. It operates in LEO, CIRCULAR orbit with a mass of 297.00 kg.

次回通過

Passes for default location (London). Set your location on the main map for personalized predictions.

高度履歴

Loading altitude history...

軌道要素

1 52346U 22045R 26262.70489313 .00000017 00000-0 12316-4 0 9991
2 52346 53.1613 37.4808 0001132 75.3733 284.7394 15.31701287245212
Epoch: Sep 19, 2026 • Age: 8 hours

現在のステータス

高度 473.7 km
遠地点 / 近地点 N/A
速度 7.63 km/s
衛星直下点 40.47°N, 61.72°E
打ち上げ日 Apr 29, 2022
運用期間 4.3 years
タイプ internet

技術仕様

分類 Payload
質量 297.00 kg
乾燥質量 275.00 kg
長さ 0.20 m
スパン 9.00 m
形状 ? Box + pan
製造者 SPXS
バスタイプ Starlink
フェーズステータス In Orbit
所有者/国 SPXS/US

Most Searched